NOAA 16 DEB, 41534

Orbit data source: Space-Track

NOAA 16 DEB, 41534 is space debris in SSO originally from a launch on Thu, 21 Sep 2000 UTC launched from the Air Force Western Test Range (AFWTR). Debris objects in space refer to the collection of defunct objects orbiting the Earth. Examples of debris include non-operational satellites, rocket bodies, and fragments generated from explosions, collisions, or faulty payload assembly.

Loading next visibility...
Identifier
41534, 2000-055NJ
Orbit
SSO
Country
Flag of USUS
Related business
Manufacturer
Unknown
Mission
Spacecraft
Bus & Motor
Unknown
Mass
Unknown
Launch date (UTC)
2000-09-21 (26 years ago)
Launch vehicle
Unknown
Launch site
Air Force Western Test Range (AFWTR)
Object type
Payload
Rocket body
Debris
Shape & HBR
Unknown shape, 0.1 m
Radar Cross Section
Medium (>0.1 m² and <1 m²)

Expand to show TLE details & history
Last TLE update: 11 hours ago

TLE from 11 hours ago
0 NOAA 16 DEB
1 41534U 00055NJ  26254.51748189  .00004292  00000-0  14953-2 0  9990
2 41534  98.8124 345.1309 0016204 277.4888  82.4456 14.35834929535733
Epoch: 2026-09-11T12:25Z
TLE epoch observation values (Epoch: 2026-09-11T12:25:10.435Z)
Latitude
0.00001°
Longitude
168.29772°
Altitude
773.721 km
Speed
7.468 km/s
True Right ascension
23h 00m 31s
True Declination
0° 00' 00"
Sunlit
Object was in full shadow at epoch
Visualization orbit readout
Latitude
Unknown
Longitude
Unknown
Altitude
Unknown
Speed
Unknown
Apparent Right ascension
Unknown
Apparent Declination
Unknown
Sunlit
N/A
Visualization observer readout
Local Sidereal Time
15:52:58
Azimuth
Unknown
Elevation
Unknown
Doppler factor
Unknown
Orbital elements
Apogee altitude
781.017 km
Perigee altitude
757.854 km
Semi-major axis
7,147.573 km
Eccentricity
0.00162
Inclination
98.8124°
RAAN
345.1309°
Arg. of periapsis
277.4888°
True anomaly
82.62972°
Mean anomaly
82.4456°
Eccentric anomaly
82.53766°
Mean motion
3.59174 °/min
Orbital period
100.23 mins
BSTAR
0.0014953
Loading maneuver chart data...
Computing Atmospheric mass density...
Loading historical data...
Loading historical data...
Loading historical data...
Loading historical data...
Loading historical data...
Loading historical data...
Loading historical data...

Documentation

Showing up to 5 results
|